This is the latest recevied weather packets stored in our database for station/object IZ3TCG-13. If no packets are shown the sender has not sent any weather packets the latest 10 day(s).
| Time | Temp. | Humidity | Pressure | Rain* | Wind** | Luminosity | Snow |
|---|---|---|---|---|---|---|---|
| 1777625764 | 17.78° C | 34% | 1016 hPa | 0 mm | - | - | - |
| 1777624324 | 17.22° C | 34% | 1015.7 hPa | 0 mm | - | - | - |
| 1777623844 | 17.22° C | 36% | 1016 hPa | 0 mm | - | - | - |
| 1777621204 | 16.67° C | 37% | 1015.9 hPa | 0 mm | - | - | - |
| 1777620004 | 15.56° C | 37% | 1015.9 hPa | 0 mm | - | - | - |
| 1777619523 | 16.11° C | 37% | 1015.5 hPa | 0 mm | - | - | - |
| 1777619043 | 15.56° C | 38% | 1015.8 hPa | 0 mm | - | - | - |
| 1777617604 | 16.11° C | 41% | 1015.8 hPa | 0 mm | - | - | - |
| 1777617124 | 16.11° C | 41% | 1015.6 hPa | 0 mm | - | - | - |
| 1777616164 | 16.11° C | 41% | 1015.3 hPa | 0 mm | - | - | - |
| 1777615684 | 16.11° C | 41% | 1015.5 hPa | 0 mm | - | - | - |
| 1777613044 | 16.11° C | 41% | 1015.2 hPa | 0 mm | - | - | - |
| 1777612564 | 16.11° C | 41% | 1015 hPa | 0 mm | - | - | - |
| 1777611123 | 16.11° C | 41% | 1014.9 hPa | 0 mm | - | - | - |
| 1777610535 | 16.11° C | 41% | 1014.7 hPa | 0 mm | - | - | - |
| 1777610294 | 16.11° C | 41% | 1014.8 hPa | 0 mm | - | - | - |
| 1777609683 | 16.11° C | 41% | 1014.7 hPa | 0 mm | - | - | - |
| 1777608724 | 16.11° C | 41% | 1014.6 hPa | 0 mm | - | - | - |
| 1777608004 | 16.11° C | 41% | 1014.5 hPa | 0 mm | - | - | - |
| 1777607043 | 16.11° C | 41% | 1014.6 hPa | 0 mm | - | - | - |
| 1777606936 | 16.11° C | 41% | 1014.3 hPa | 0 mm | - | - | - |
| 1777602724 | 16.11° C | 41% | 1014.5 hPa | 0 mm | - | - | - |
| 1777601284 | 16.11° C | 41% | 1014.4 hPa | 0 mm | - | - | - |
| 1777601175 | 16.11° C | 41% | 1014.5 hPa | 0 mm | - | - | - |
| 1777600804 | 16.11° C | 41% | 1014.4 hPa | 0 mm | - | - | - |
* Rain latest hour (hover to see other rain measurements)
** Current wind speed in m/s (hover to see current wind gust speed)